Weather History for Oscoda, MI

Change the Weather History Date:

Thursday, January 17, 2013

  Actual Average Record
Temperature  
Mean Temperature 16 °F -  
Max Temperature 27 °F 24 °F 35 °F (1999)
Min Temperature 3 °F 9 °F -9 °F (2004)
Degree Days  
Heating Degree Days 50    
Moisture  
Dew Point 9 °F    
Average Humidity 71    
Maximum Humidity 88    
Minimum Humidity 63    
Precipitation  
Precipitation 0.00 in - - ()
Sea Level Pressure  
Sea Level Pressure 30.15 in    
Wind  
Wind Speed 9 mph (NW)    
Max Wind Speed 17 mph    
Max Gust Speed 23 mph    
Visibility 9 miles    
Events Snow    
Averages and records for this station are not official NWS values.
T = Trace of Precipitation, MM = Missing Value Source: NWS Daily Summary

Daily Weather History Graph

Daily Weather History Graph

Search for Another Location

Airport:

Trip Planner

Search our weather history database for the weather conditions in past years. The results will help you decide how hot, cold, wet, or windy it might be!

Date:

Astronomy

Jan. 17, 2013 Rise Set
Actual Time 8:05 AM EST 5:22 PM EST
Civil Twilight 7:32 AM EST 5:55 PM EST
Nautical Twilight 6:57 AM EST 6:30 PM EST
Astronomical Twilight 6:22 AM EST 7:05 PM EST
Moon 10:54 AM EST No Moon Set
Length of Visible Light 10h 22m
Length of Day
9h 17m
Waxing Crescent, 37% of the Moon is Illuminated
Jan 17
Waxing Crescent
Jan 18
First Quarter
Jan 26
Full
Feb 3
Last Quarter
Feb 10
New

Hourly Weather History & Observations

Time (EST) Temp. Windchill Dew Point Humidity Pressure Visibility Wind Dir Wind Speed Gust Speed Precip Events Conditions
12:14 AM 27.3 °F 16.6 °F 18.3 °F 69% 29.89 in 10.0 mi NW 12.7 mph 20.7 mph N/A   Overcast
12:34 AM 26.4 °F 16.6 °F 17.6 °F 69% 29.90 in 10.0 mi NW 10.4 mph - N/A   Overcast
12:53 AM 25.9 °F 16.6 °F 16.9 °F 69% 29.93 in 10.0 mi NNW 9.2 mph - N/A   Overcast
1:14 AM 25.5 °F 14.3 °F 15.8 °F 67% 29.95 in 10.0 mi North 12.7 mph 18.4 mph N/A   Overcast
1:34 AM 24.6 °F 13.2 °F 15.1 °F 67% 29.96 in 10.0 mi NNW 12.7 mph - N/A   Overcast
1:53 AM 24.1 °F 12.0 °F 14.7 °F 68% 29.98 in 10.0 mi NNW 13.8 mph 17.3 mph N/A   Overcast
2:14 AM 23.5 °F 13.0 °F 14.4 °F 68% 29.98 in 10.0 mi NNW 10.4 mph - N/A   Overcast
2:34 AM 23.0 °F 11.1 °F 13.1 °F 66% 29.99 in 10.0 mi North 12.7 mph - N/A   Overcast
2:53 AM 22.1 °F 11.3 °F 12.2 °F 66% 30.00 in 10.0 mi NNW 10.4 mph - N/A   Overcast
3:14 AM 20.8 °F 11.2 °F 10.8 °F 65% 30.02 in 10.0 mi NW 8.1 mph - N/A   Mostly Cloudy
3:34 AM 20.8 °F 9.0 °F 10.9 °F 66% 30.03 in 10.0 mi North 11.5 mph - N/A   Overcast
3:53 AM 20.8 °F 9.0 °F 11.3 °F 67% 30.05 in 10.0 mi North 11.5 mph - N/A   Overcast
4:14 AM 20.1 °F 8.8 °F 10.4 °F 66% 30.06 in 10.0 mi North 10.4 mph - N/A   Overcast
4:34 AM 19.6 °F 7.4 °F 9.0 °F 63% 30.06 in 10.0 mi North 11.5 mph - N/A   Overcast
4:53 AM 19.4 °F 8.6 °F 9.5 °F 65% 30.09 in 10.0 mi North 9.2 mph - N/A   Overcast
5:14 AM 19.4 °F 11.5 °F 9.9 °F 66% 30.10 in 10.0 mi North 5.8 mph - N/A   Overcast
5:34 AM 19.0 °F 9.0 °F 10.2 °F 69% 30.10 in 10.0 mi North 8.1 mph - N/A   Overcast
5:53 AM 18.5 °F 7.5 °F 9.7 °F 68% 30.11 in 10.0 mi North 9.2 mph - N/A   Overcast
6:14 AM 18.1 °F 6.3 °F 9.5 °F 69% 30.13 in 10.0 mi North 10.4 mph - N/A   Overcast
6:33 AM 17.6 °F 5.7 °F 9.7 °F 71% 30.13 in 10.0 mi North 10.4 mph - N/A   Overcast
6:53 AM 17.6 °F 8.2 °F 9.1 °F 69% 30.14 in 10.0 mi North 6.9 mph - N/A   Overcast
7:14 AM 17.4 °F 6.2 °F 8.8 °F 69% 30.14 in 10.0 mi North 9.2 mph - N/A   Overcast
7:34 AM 17.1 °F 6.6 °F 8.2 °F 68% 30.15 in 10.0 mi North 8.1 mph - N/A   Overcast
7:53 AM 16.7 °F 6.2 °F 8.4 °F 70% 30.16 in 10.0 mi North 8.1 mph - N/A   Overcast
8:14 AM 16.7 °F 6.2 °F 8.6 °F 70% 30.16 in 10.0 mi North 8.1 mph - N/A   Overcast
8:34 AM 16.7 °F 7.2 °F 8.6 °F 70% 30.17 in 10.0 mi North 6.9 mph - N/A   Overcast
8:53 AM 16.7 °F 7.2 °F 8.6 °F 70% 30.18 in 10.0 mi North 6.9 mph - N/A   Overcast
9:14 AM 16.7 °F 9.6 °F 6.4 °F 64% 30.20 in 10.0 mi NNW 4.6 mph - N/A   Overcast
9:33 AM 16.7 °F 7.2 °F 6.4 °F 64% 30.20 in 10.0 mi NNW 6.9 mph - N/A   Overcast
9:53 AM 16.7 °F 7.2 °F 7.0 °F 66% 30.20 in 10.0 mi North 6.9 mph - N/A   Overcast
10:14 AM 16.7 °F 6.2 °F 7.2 °F 66% 30.20 in 10.0 mi NNW 8.1 mph - N/A   Overcast
10:33 AM 17.1 °F 10.0 °F 7.5 °F 66% 30.20 in 10.0 mi NNW 4.6 mph - N/A   Overcast
10:53 AM 17.2 °F 8.9 °F 7.3 °F 65% 30.20 in 10.0 mi NNW 5.8 mph - N/A   Overcast
11:14 AM 17.2 °F 11.9 °F 7.2 °F 65% 30.19 in 10.0 mi NNW 3.5 mph - N/A   Overcast
11:33 AM 17.6 °F 12.3 °F 7.2 °F 64% 30.19 in 10.0 mi NNW 3.5 mph - N/A   Overcast
11:54 AM 17.6 °F 10.7 °F 7.3 °F 64% 30.18 in 10.0 mi NW 4.6 mph - N/A   Overcast
12:14 PM 17.6 °F 9.3 °F 7.5 °F 65% 30.18 in 10.0 mi NW 5.8 mph - N/A   Overcast
12:33 PM 17.6 °F - 7.2 °F 64% 30.17 in 10.0 mi Calm Calm - N/A   Overcast
12:54 PM 18.1 °F 11.3 °F 9.0 °F 67% 30.16 in 7.0 mi WNW 4.6 mph - N/A   Overcast
1:14 PM 18.1 °F 10.0 °F 8.8 °F 67% 30.16 in 5.0 mi WNW 5.8 mph - N/A Snow Light Snow
1:33 PM 18.7 °F 13.5 °F 8.6 °F 65% 30.15 in 10.0 mi West 3.5 mph - N/A   Overcast
1:54 PM 19.2 °F 12.5 °F 9.7 °F 66% 30.15 in 10.0 mi WNW 4.6 mph - N/A   Overcast
2:14 PM 19.4 °F 11.5 °F 10.2 °F 68% 30.15 in 10.0 mi West 5.8 mph - N/A   Overcast
2:33 PM 19.4 °F - 10.6 °F 69% 30.14 in 7.0 mi Calm Calm - N/A Snow Light Snow
2:54 PM 19.4 °F 12.8 °F 11.8 °F 72% 30.13 in 7.0 mi WSW 4.6 mph - N/A   Overcast
3:14 PM 19.4 °F 12.8 °F 13.1 °F 76% 30.13 in 3.0 mi WNW 4.6 mph - N/A Snow Light Snow
3:33 PM 19.0 °F 10.0 °F 14.5 °F 83% 30.13 in 1.0 mi West 6.9 mph - N/A Snow Light Snow
3:54 PM 19.0 °F 9.0 °F 12.7 °F 76% 30.14 in 5.0 mi WNW 8.1 mph - N/A Snow Light Snow
4:14 PM 18.5 °F 8.4 °F 11.8 °F 75% 30.14 in 10.0 mi WNW 8.1 mph - N/A   Overcast
4:33 PM 17.4 °F 6.2 °F 12.9 °F 83% 30.14 in 0.8 mi WNW 9.2 mph - N/A Snow Light Snow
4:54 PM 17.6 °F 3.7 °F 7.9 °F 66% 30.15 in 10.0 mi WNW 13.8 mph 23.0 mph N/A   Overcast
5:14 PM 16.7 °F 3.8 °F 7.5 °F 67% 30.16 in 10.0 mi WNW 11.5 mph 23.0 mph N/A   Overcast
5:33 PM 15.8 °F -0.2 °F 8.8 °F 74% 30.17 in 10.0 mi NW 17.3 mph - N/A   Overcast
5:54 PM 14.9 °F 4.0 °F 9.0 °F 77% 30.19 in 7.0 mi WNW 8.1 mph - N/A   Overcast
6:13 PM 14.4 °F -1.0 °F 6.6 °F 71% 30.20 in 7.0 mi NW 15.0 mph - N/A   Overcast
6:33 PM 12.9 °F 0.7 °F 7.0 °F 77% 30.20 in 10.0 mi WNW 9.2 mph - N/A   Mostly Cloudy
6:54 PM 12.9 °F 0.7 °F 5.5 °F 72% 30.21 in 10.0 mi West 9.2 mph - N/A   Mostly Cloudy
7:13 PM 12.0 °F 1.5 °F 4.8 °F 73% 30.22 in 10.0 mi West 6.9 mph - N/A   Scattered Clouds
7:33 PM 12.2 °F 1.7 °F 4.5 °F 71% 30.23 in 10.0 mi West 6.9 mph - N/A   Scattered Clouds
7:54 PM 10.2 °F 2.0 °F 4.1 °F 76% 30.24 in 10.0 mi West 4.6 mph - N/A   Clear
8:13 PM 9.9 °F 1.6 °F 4.3 °F 78% 30.25 in 10.0 mi WNW 4.6 mph - N/A   Mostly Cloudy
8:34 PM 10.4 °F 4.0 °F 5.5 °F 81% 30.26 in 7.0 mi West 3.5 mph - N/A   Overcast
8:54 PM 9.1 °F -0.7 °F 4.3 °F 81% 30.26 in 10.0 mi West 5.8 mph - N/A   Scattered Clouds
9:13 PM 8.2 °F -0.3 °F 4.1 °F 83% 30.26 in 10.0 mi West 4.6 mph - N/A   Clear
9:34 PM 8.4 °F -0.1 °F 4.3 °F 83% 30.26 in 10.0 mi West 4.6 mph - N/A   Clear
9:54 PM 7.7 °F -2.4 °F 3.6 °F 83% 30.26 in 10.0 mi West 5.8 mph - N/A   Clear
10:13 PM 6.4 °F -3.9 °F 2.3 °F 83% 30.27 in 10.0 mi West 5.8 mph - N/A   Clear
10:34 PM 6.6 °F -2.2 °F 2.8 °F 84% 30.27 in 10.0 mi West 4.6 mph - N/A   Clear
10:54 PM 4.3 °F -6.5 °F 0.5 °F 84% 30.26 in 10.0 mi West 5.8 mph - N/A   Clear
11:13 PM 4.8 °F -4.3 °F 1.9 °F 88% 30.26 in 10.0 mi WSW 4.6 mph - N/A   Clear
11:34 PM 4.1 °F -5.1 °F 1.0 °F 87% 30.27 in 10.0 mi WSW 4.6 mph - N/A   Clear
11:54 PM 3.7 °F -7.1 °F 0.5 °F 86% 30.27 in 10.0 mi WSW 5.8 mph - N/A   Clear